Location: Palomar Mountain Lodge
(33.3110°N, 116.8495°W)
Time: 05:42:18
(UTC-07:00)

Cosmos 1610 Rocket - Pass Details

Date: 19 May 2017
Orbit: 952 x 1003 km, 82.9° (Epoch: 22 July)

Event Time Altitude Azimuth Distance (km) Brightness Sun altitude
Rises 22:00:53 0° 356° (N) 3,705 8.3 -24.0°
Reaches altitude 10° 22:03:27 10° 358° (N) 2,746 7.5 -24.4°
Maximum altitude 22:09:44 73° 83° (E) 1,019 4.4 -25.2°
Enters shadow 22:10:49 60° 141° (SE) 1,107 4.4 -25.4°
